[Iaude] MPEC N126: 2024 MD3 [a=1.63,e=0.38,i=4.9,H=23.6]
    mpec at cfa.harvard.edu 
    mpec at cfa.harvard.edu
       
    Wed Jul 10 10:34:18 EDT 2024
    
    
  
M.P.E.C. 2024-N126                                Issued 2024 July 10, 14:32 UT
     The Minor Planet Electronic Circulars contain information on unusual
         minor planets, routine data on comets and natural satellites,
         and occasional editorial announcements.  They are published
    on behalf of Division F of the International Astronomical Union by the
          Minor Planet Center, Smithsonian Astrophysical Observatory,
                          Cambridge, MA 02138, U.S.A.
			  
             Prepared using the Tamkin Foundation Computer Network
                              MPC at CFA.HARVARD.EDU
            URL https://www.minorplanetcenter.net/    ISSN 1523-6714
                                    2024 MD3                                    
Observations:
     K24M03D* C2024 06 29.45792220 17 26.468-02 07 48.57         21.18wXEN126F51
     K24M03D  C2024 06 29.46859620 17 28.896-02 06 56.78         20.79wXEN126F51
     K24M03D  C2024 06 29.47918120 17 31.286-02 06 05.93         21.15wXEN126F51
     K24M03D  C2024 07 04.45299120 40 56.210+05 26 41.77         20.90GVEN126F52
     K24M03D  C2024 07 04.46031720 40 58.309+05 27 26.60         20.54GVEN126F52
     K24M03D  C2024 07 04.46765920 41 00.416+05 28 11.72         19.85GVEN126F52
     K24M03D  C2024 07 09.43818421 10 47.991+14 45 07.97         20.45wXEN126F52
     K24M03D  C2024 07 09.45063421 10 52.699+14 46 39.54         20.46wXEN126F52
     K24M03D  C2024 07 09.46313921 10 57.394+14 48 11.15         20.50wXEN126F52
     K24M03D  C2024 07 09.47564721 11 02.070+14 49 42.42         20.47wXEN126F52
     K24M03D  C2024 07 09.53205021 11 23.173+14 56 33.97         20.53GVEN126F52
     K24M03D  C2024 07 09.53270421 11 23.402+14 56 38.34         20.44GVEN126F52
     K24M03D IC2024 07 09.89080621 13 54.77 +15 39 38.4          20.5 GVEN126L01
     K24M03D IC2024 07 09.89229121 13 55.33 +15 39 49.8          20.3 GVEN126L01
     K24M03D IC2024 07 09.89377321 13 55.90 +15 40 00.5          20.4 GVEN126L01
     K24M03D pC2024 07 09.89525521 13 56.54 +15 40 11.3          20.5 GVEN126L01
     K24M03D pC2024 07 09.89673621 13 57.16 +15 40 22.3          20.4 GVEN126L01
     K24M03D KB2024 07 09.91194421 14 03.605+15 42 25.09         19.8 GXEN126L34
     K24M03D KB2024 07 09.95878 21 14 21.00 +15 48 04.3          20.4 VZEN126M45
     K24M03D KB2024 07 09.96897 21 14 25.00 +15 49 19.5          20.3 VZEN126M45
     K24M03D KB2024 07 09.98658821 14 33.05 +15 51 28.2                VEN126204
     K24M03D KB2024 07 10.00638721 14 40.87 +15 53 54.9                VEN126204
     K24M03D KB2024 07 10.02049221 14 46.41 +15 55 39.1          20.4 GVEN126204
     K24M03D KB2024 07 10.02162021 14 46.601+15 55 57.29         19.5 GXEN126L34
Observer details:
204 Schiaparelli Observatory.  Observer L. Buzzi.  0.84-m f/3.5 reflector +
    CMO.
F51 Pan-STARRS 1, Haleakala.  Observers J. Herman, T. Lowe, P. Minguez, A.
    Schultz, I. Smith.  Measurers K. Chambers, T. de Boer, J. Fairlamb, H.
    Gao, M. Huber, C.-C. Lin, E. Magnier, Y. Ramanjooloo, R. Wainscoat, R.
    Weryk.  1.8-m Ritchey-Chretien + CCD.
F52 Pan-STARRS 2, Haleakala.  Observers J. Herman, T. Lowe, P. Minguez, A.
    Schultz, I. Smith.  Measurers K. Chambers, T. de Boer, J. Fairlamb, H.
    Gao, M. Huber, C.-C. Lin, E. Magnier, Y. Ramanjooloo, R. Wainscoat, R.
    Weryk.  1.8-m Ritchey-Chretien + CCD.
L01 Visnjan Observatory, Tican.  Observer K. Korlevic.  1.0-m f/2.9 reflector
    + CCD.
L34 Galhassin Robotic Telescope, Isnello.  Observer A. Nastasi.  0.40-m f/3.8
    400mm Reflector + CMO.
M45 Starhopper Observatory, Sfantu Gheorghe.  Observer F. Ursache.  0.41-m
    f/7.5 reflector + CMO.
Orbital elements:
2024 MD3                                                 Earth MOID = 0.0715 AU
Epoch 2024 Mar. 31.0 TT = JDT 2460400.5                 Veres                   
M 292.69475              (2000.0)            P               Q                  
n   0.47477477     Peri.   79.03840     +0.90583792     +0.41543142             
a   1.6273375      Node   256.37266     -0.41431199     +0.82797850             
e   0.3832879      Incl.    4.89407     -0.08833598     +0.37665414             
P   2.08           H   23.61          G   0.15           U   8                  
Residuals in seconds of arc
240629 F51  0.0   0.2-    240709 F52  0.1+  0.1+    240709 L01  0.6+  0.5-
240629 F51  0.1+  0.1+    240709 F52  0.1-  0.1-    240709 L34  0.7+  0.3+
240629 F51  0.1-  0.1-    240709 F52  0.0   0.0     240709 M45  0.0   0.2+
240704 F52  0.3+  0.0     240709 F52  0.2-  0.3-    240709 M45  0.0   0.0
240704 F52  0.0   0.0     240709 L01  0.4+  0.3-    240709 204  0.1-  0.1+
240704 F52  0.2-  0.1+    240709 L01  0.1-  0.0     240710 204  0.1+  0.1+
240709 F52  0.3-  0.3-    240709 L01  0.4-  0.2-    240710 204  0.1-  0.0
240709 F52  0.1+  0.1+    240709 L01  0.2+  0.5-    240710 L34  0.3+  0.9-
Ephemeris:
2024 MD3                 a,e,i = 1.63, 0.38, 5                   q = 1.0036
Date    TT    R. A. (2000) Decl.     Delta      r    Elong.  Phase     V
2024 06 10    19 19 35.9 -18 28 43   0.2419  1.2311   150.2    24.2    22.1
...
2024 06 25    20 00 25.3 -07 27 29   0.1570  1.1554   150.3    25.9    21.1
...
2024 07 03    20 33 29.9 +03 03 38   0.1240  1.1189   143.6    32.7    20.7
...
2024 07 09    21 07 49.2 +13 52 27   0.1068  1.0938   134.2    41.8    20.6
2024 07 10    21 14 36.5 +15 53 44   0.1047  1.0899   132.3    43.6    20.6
2024 07 11    21 21 45.0 +17 57 47   0.1028  1.0860   130.3    45.5    20.6
...
2024 07 17    22 12 44.6 +30 40 18   0.09683 1.0642   117.3    58.1    20.8
...
2024 07 25    23 42 04.0 +44 27 40   0.1022  1.0397   100.8    73.7    21.3
...
2024 08 09    02 29 46.7 +51 54 47   0.1380  1.0100    84.5    87.7    22.4
M. P. C. Staff               (C) Copyright 2024 MPC           M.P.E.C. 2024-N126
    
    
More information about the Iaude
mailing list